Weather History for Fort Polk, LA

Change the Weather History Date:

Friday, December 7, 2012

  Actual Average (KPOE) Record (KPOE)
Temperature  
Mean Temperature 62 °F -  
Max Temperature 72 °F 60 °F 80 °F (1998)
Min Temperature 52 °F 42 °F 28 °F (2003)
Degree Days  
Heating Degree Days 3    
Growing Degree Days 12 (Base 50)    
Moisture  
Dew Point 57 °F    
Average Humidity 86    
Maximum Humidity 100    
Minimum Humidity 64    
Precipitation  
Precipitation 0.01 in - - ()
Sea Level Pressure  
Sea Level Pressure 29.91 in    
Wind  
Wind Speed 4 mph (SSE)    
Max Wind Speed 8 mph    
Max Gust Speed -    
Visibility 7 miles    
Events Fog    
Averages and records for this station are not official NWS values.
T = Trace of Precipitation, MM = Missing Value Source: NWS Daily Summary

Daily Weather History Graph

Daily Weather History Graph

Search for Another Location

Airport:

Trip Planner

Search our weather history database for the weather conditions in past years. The results will help you decide how hot, cold, wet, or windy it might be!

Date:

Astronomy

Dec. 07, 2012 Rise Set
Actual Time 6:58 AM CST 5:10 PM CST
Civil Twilight 6:31 AM CST 5:36 PM CST
Nautical Twilight 6:01 AM CST 6:06 PM CST
Astronomical Twilight 5:32 AM CST 6:36 PM CST
Moon 12:39 AM CST (12/7) 12:48 PM CST (12/7)
Length of Visible Light 11h 04m
Length of Day
10h 11m
Last Quarter, 38% of the Moon is Illuminated
Dec 7
Last Quarter
Dec 13
New
Dec 19
First Quarter
Dec 28
Full
Jan 4
Last Quarter

Hourly Weather History & Observations

Time (CST) Temp. Dew Point Humidity Pressure Visibility Wind Dir Wind Speed Gust Speed Precip Events Conditions
12:53 AM 52.0 °F 51.1 °F 97% 29.94 in 0.2 mi Calm Calm - N/A Fog Fog
1:53 AM 52.0 °F 51.1 °F 97% 29.92 in 0.2 mi SSE 5.8 mph - N/A Fog Fog
2:53 AM 53.1 °F 52.0 °F 96% 29.92 in 0.2 mi South 3.5 mph - N/A Fog Fog
3:53 AM 53.1 °F 52.0 °F 96% 29.92 in 0.5 mi Calm Calm - N/A Fog Fog
4:53 AM 53.1 °F 52.0 °F 96% 29.91 in 0.5 mi SSE 4.6 mph - 0.01 in Fog Fog
5:53 AM 53.1 °F 52.0 °F 96% 29.92 in 0.5 mi Calm Calm - N/A Fog Fog
6:53 AM 53.1 °F 52.0 °F 96% 29.93 in 0.2 mi SSE 5.8 mph - N/A Fog Fog
7:53 AM 54.0 °F 53.1 °F 97% 29.94 in 0.2 mi SSE 5.8 mph - N/A Fog Fog
8:41 AM 57.2 °F 55.4 °F 94% 29.95 in 2.5 mi SSE 5.8 mph - N/A   Overcast
8:48 AM 57.2 °F 55.4 °F 94% 29.95 in 5.0 mi SSE 6.9 mph - N/A   Overcast
8:53 AM 57.0 °F 55.9 °F 96% 29.96 in 6.0 mi SSE 4.6 mph - N/A   Overcast
9:01 AM 57.2 °F 55.4 °F 94% 29.96 in 10.0 mi SSE 6.9 mph - N/A   Mostly Cloudy
9:23 AM 57.2 °F 57.2 °F 100% 29.96 in 10.0 mi SSE 5.8 mph - N/A   Partly Cloudy
9:53 AM 62.1 °F 57.0 °F 84% 29.96 in 10.0 mi SE 5.8 mph - N/A   Clear
10:53 AM 66.0 °F 59.0 °F 78% 29.94 in 10.0 mi South 6.9 mph - N/A   Clear
11:53 AM 69.1 °F 60.1 °F 73% 29.92 in 10.0 mi South 6.9 mph - N/A   Partly Cloudy
12:41 PM 71.6 °F 60.8 °F 69% 29.89 in 10.0 mi Variable 5.8 mph - N/A   Mostly Cloudy
12:53 PM 70.0 °F 59.0 °F 68% 29.88 in 10.0 mi SW 5.8 mph - N/A   Mostly Cloudy
1:24 PM 71.6 °F 59.0 °F 64% 29.87 in 10.0 mi WSW 4.6 mph - N/A   Scattered Clouds
1:53 PM 71.1 °F 59.0 °F 66% 29.86 in 10.0 mi SW 3.5 mph - N/A   Mostly Cloudy
2:53 PM 72.0 °F 60.1 °F 66% 29.85 in 10.0 mi SSE 4.6 mph - N/A   Scattered Clouds
3:53 PM 72.0 °F 59.0 °F 64% 29.85 in 10.0 mi SSE 4.6 mph - N/A   Clear
4:53 PM 69.1 °F 60.1 °F 73% 29.86 in 10.0 mi SSE 4.6 mph - N/A   Clear
5:53 PM 66.0 °F 60.1 °F 81% 29.86 in 10.0 mi SE 4.6 mph - N/A   Clear
7:53 PM 64.0 °F 60.1 °F 87% 29.89 in 10.0 mi SSE 4.6 mph - N/A   Clear
8:16 PM 64.4 °F 60.8 °F 88% 29.89 in 10.0 mi South 6.9 mph - N/A   Mostly Cloudy
8:53 PM 64.0 °F 60.1 °F 87% 29.89 in 10.0 mi SSE 8.1 mph - N/A   Scattered Clouds
9:53 PM 63.0 °F 60.1 °F 90% 29.90 in 10.0 mi SSE 5.8 mph - N/A   Mostly Cloudy
10:22 PM 62.6 °F 60.8 °F 94% 29.90 in 10.0 mi SSE 6.9 mph - N/A   Scattered Clouds
10:53 PM 63.0 °F 59.0 °F 87% 29.90 in 10.0 mi SSE 5.8 mph - N/A   Mostly Cloudy
11:53 PM 63.0 °F 59.0 °F 87% 29.90 in 10.0 mi SSE 6.9 mph - N/A   Mostly Cloudy